North Platte, NE

6:29 PM CDT on June 25, 2017 (GMT -0500)
North Platte Regional-Bird

Weather History for KLBF - June, 2014

Change the Weather History Date:

Tuesday, June 24, 2014

  Actual Average Record
Temperature  
Mean Temperature 70 °F 71 °F  
Max Temperature 79 °F 85 °F 106 °F (1954)
Min Temperature 61 °F 57 °F 44 °F (1951)
Degree Days  
Heating Degree Days 0 1  
Month to date heating degree days 39 49  
Since 1 June heating degree days 39 49  
Since 1 July heating degree days 6869 6684  
Cooling Degree Days 5 6  
Month to date cooling degree days 93 94  
Year to date cooling degree days 142 122  
Since 1 June cooling degree days 93 94  
Growing Degree Days 20 (Base 50)    
Moisture  
Dew Point 61 °F    
Average Humidity 74    
Maximum Humidity 93    
Minimum Humidity 54    
Precipitation  
Precipitation 0.61 in 0.10 in 1.78 in (1968)
Month to date precipitation 7.99 2.81  
Year to date precipitation 12.28 10.25  
Snow  
Snow 0.00 in 0.00 in 0.00 in ()
Month to date snowfall T 0.0  
Since 1 June snowfall T 0.0  
Since 1 July snowfall 29.8 28.5  
Snow Depth 0.00 in    
Sea Level Pressure  
Sea Level Pressure 30.02 in    
Wind  
Wind Speed 6 mph (ESE)    
Max Wind Speed 18 mph    
Max Gust Speed 24 mph    
Visibility 9 miles    
Events Rain , Thunderstorm    
T = Trace of Precipitation, MM = Missing Value Source: NWS Daily Summary

Daily Weather History Graph

Daily Weather History Graph

Search for Another Location

Airport or City:

Trip Planner

Search our weather history database for the weather conditions in past years. The results will help you decide how hot, cold, wet, or windy it might be!

Date:

Astronomy

Jun. 24, 2014 Rise Set
Actual Time 6:11 AM CDT 9:19 PM CDT
Civil Twilight 5:37 AM CDT 9:52 PM CDT
Nautical Twilight 4:54 AM CDT 10:36 PM CDT
Astronomical Twilight 4:02 AM CDT 11:27 PM CDT
Moon 4:20 AM CDT (6/24) 6:58 PM CDT (6/24)
Length of Visible Light 16h 15m
Length of Day
15h 08m
Waning Crescent, 7% of the Moon is Illuminated
Jun 24
Waning Crescent
Jun 27
New
Jul 5
First Quarter
Jul 12
Full
Jul 18
Last Quarter

Hourly Weather History & Observations

Time (CDT) Temp. Dew Point Humidity Pressure Visibility Wind Dir Wind Speed Gust Speed Precip Events Conditions
12:53 AM 64.0 °F 61.0 °F 90% 30.02 in 10.0 mi Calm Calm - N/A   Clear
1:53 AM 63.0 °F 60.1 °F 90% 30.00 in 10.0 mi East 4.6 mph - N/A   Clear
2:53 AM 62.1 °F 60.1 °F 93% 29.99 in 10.0 mi ESE 3.5 mph - N/A   Mostly Cloudy
3:49 AM 62.6 °F 60.8 °F 94% 30.08 in 10.0 mi NW 6.9 mph - N/A Thunderstorm Overcast
3:53 AM 63.0 °F 61.0 °F 93% 30.02 in 8.0 mi West 10.4 mph - 0.00 in Rain , Thunderstorm Light Thunderstorms and Rain
3:59 AM 64.0 °F 61.0 °F 90% 30.09 in 1.8 mi SW 5.8 mph - 0.10 in Rain , Thunderstorm Heavy Thunderstorms and Rain
4:07 AM 64.0 °F 61.0 °F 90% 30.08 in 1.2 mi West 5.8 mph - 0.25 in Rain , Thunderstorm Heavy Thunderstorms and Rain
4:17 AM 63.0 °F 61.0 °F 93% 30.07 in 2.0 mi NNW 5.8 mph - 0.39 in Rain , Thunderstorm Heavy Thunderstorms and Rain
4:30 AM 63.0 °F 61.0 °F 93% 30.06 in 4.0 mi NE 10.4 mph - 0.49 in Rain , Thunderstorm Thunderstorms and Rain
4:39 AM 63.0 °F 61.0 °F 93% 30.06 in 8.0 mi East 6.9 mph - 0.51 in Rain , Thunderstorm Light Rain
4:53 AM 63.0 °F 61.0 °F 93% 29.99 in 10.0 mi East 9.2 mph - 0.51 in   Overcast
5:53 AM 63.0 °F 59.0 °F 87% 30.00 in 10.0 mi SSE 6.9 mph - N/A   Partly Cloudy
6:53 AM 62.1 °F 59.0 °F 90% 30.00 in 10.0 mi ESE 6.9 mph - N/A   Clear
7:53 AM 62.1 °F 59.0 °F 90% 30.01 in 10.0 mi ESE 5.8 mph - N/A   Clear
8:53 AM 66.0 °F 61.0 °F 84% 30.03 in 10.0 mi SE 3.5 mph - N/A   Clear
9:53 AM 70.0 °F 61.0 °F 73% 30.04 in 10.0 mi SSW 4.6 mph - N/A   Clear
10:53 AM 73.0 °F 60.1 °F 64% 30.03 in 10.0 mi SE 4.6 mph - N/A   Scattered Clouds
11:53 AM 75.0 °F 60.1 °F 60% 30.02 in 10.0 mi SE 4.6 mph - N/A   Partly Cloudy
12:53 PM 78.1 °F 60.1 °F 54% 30.01 in 10.0 mi Calm Calm - N/A   Partly Cloudy
1:53 PM 79.0 °F 60.1 °F 52% 29.99 in 10.0 mi Variable 4.6 mph - N/A   Clear
2:14 PM 78.1 °F 57.9 °F 50% 30.06 in 10.0 mi Variable 3.5 mph - N/A Thunderstorm Mostly Cloudy
2:53 PM 75.0 °F 62.1 °F 64% 29.99 in 10.0 mi ESE 3.5 mph - 0.00 in Rain Light Rain
3:01 PM 75.0 °F 62.1 °F 64% 30.05 in 10.0 mi East 9.2 mph - 0.00 in Thunderstorm Thunderstorm
3:28 PM 69.8 °F 62.6 °F 78% 30.04 in 10.0 mi East 11.5 mph - N/A Rain Light Rain
3:53 PM 75.0 °F 64.9 °F 71% 29.97 in 10.0 mi East 11.5 mph - 0.10 in   Clear
4:53 PM 70.0 °F 61.0 °F 73% 29.96 in 10.0 mi East 8.1 mph - N/A   Mostly Cloudy
5:53 PM 73.0 °F 61.0 °F 66% 29.97 in 10.0 mi East 8.1 mph - N/A   Mostly Cloudy
6:53 PM 73.0 °F 61.0 °F 66% 29.97 in 10.0 mi SE 5.8 mph - 0.00 in   Scattered Clouds
7:53 PM 72.0 °F 62.1 °F 71% 29.98 in 10.0 mi East 5.8 mph - N/A   Partly Cloudy
8:53 PM 66.2 °F 62.6 °F 88% 30.05 in 10.0 mi East 4.6 mph - N/A   Partly Cloudy
9:53 PM 64.0 °F 61.0 °F 90% 30.00 in 10.0 mi East 6.9 mph - N/A   Clear
10:53 PM 62.1 °F 60.1 °F 93% 29.99 in 10.0 mi East 5.8 mph - N/A   Clear
11:53 PM 62.1 °F 59.0 °F 90% 30.01 in 10.0 mi Calm Calm - N/A   Clear